Wind_Speed
17 18 17 15 13 13 16 15 15 15 16 15 13 12 11 12 11 11 11 9 8 7 7 7 4 3 3 4 6 6 6 6 8 8 9 10 11 11 13 14 14 12 13
24 20 19 17 14 14 17 17 16 14 15 13 12 12 10 10 9 8 7 6 7 7 7 4 4 4 4 4 4 3 3 4 4 6 9 10 10 10 11 7 2 13 11
24 21 18 18 16 15 16 17 16 15 14 13 11 9 8 7 6 4 3 2 2 3 3 3 3 4 5 5 4 3 2 3 5 4 11 17 14 11 11 8 10 12 11
23 20 19 19 17 16 15 15 16 14 13 12 10 10 8 6 4 3 3 1 1 2 2 2 2 4 4 5 5 3 2 2 5 7 13 8 12 13 11 9 9 9 9
22 20 20 20 16 15 14 14 14 13 12 10 8 7 5 4 4 3 3 2 1 1 2 1 3 4 4 5 4 4 3 1 4 7 9 9 12 17 11 9 9 8 8
19 19 19 20 16 14 13 13 13 12 11 10 8 7 5 4 4 4 4 4 3 2 2 0 1 2 3 3 3 4 2 2 2 9 6 8 5 12 11 11 8 9 8
19 18 17 19 16 14 14 13 12 11 10 9 8 7 5 5 5 5 4 4 3 3 1 1 1 1 2 2 2 2 2 1 4 4 3 2 8 7 8 10 8 8 7
18 16 16 15 14 13 12 12 11 9 8 8 7 6 5 5 4 3 2 1 2 4 2 1 1 1 3 3 3 2 3 2 5 7 6 6 8 6 9 8 10 8 7
16 18 15 14 13 12 11 10 10 9 9 8 7 6 5 4 4 4 4 4 4 3 3 2 1 1 2 3 4 4 5 6 8 6 5 8 8 5 9 10 9 9 9
14 16 18 14 13 12 10 10 9 8 8 7 7 6 6 6 6 5 4 5 5 5 4 4 4 3 4 4 5 6 7 8 7 7 9 7 4 5 11 9 8 8 9
13 14 14 17 11 11 8 12 10 8 8 8 7 8 5 9 11 10 10 7 4 5 4 4 4 5 7 8 3 3 6 7 6 7 8 8 2 4 10 10 10 8 10
15 13 12 17 15 14 12 14 9 11 9 9 9 9 8 9 5 7 9 6 6 6 5 5 4 6 10 9 4 1 3 6 3 4 7 3 2 7 9 10 10 11 11
15 14 13 12 15 14 13 12 8 13 9 11 9 8 10 8 8 8 10 7 5 7 6 8 9 6 6 2 4 4 4 4 5 6 2 3 5 7 9 10 12 12 12
17 15 15 12 11 11 11 11 11 13 11 13 11 12 11 9 6 8 8 5 4 6 5 6 8 5 4 3 4 5 6 4 5 4 5 6 7 9 8 10 11 12 12
14 15 15 14 12 12 10 11 10 10 10 11 10 13 13 12 10 8 9 8 7 8 7 6 6 6 3 7 7 6 9 5 6 7 5 8 7 10 10 10 13 15 15
13 14 14 15 15 15 14 11 11 12 10 13 12 13 15 13 12 12 11 11 10 9 8 9 4 5 7 7 10 6 9 7 7 8 8 11 11 14 17 15 16 18 18
14 14 14 14 15 16 15 14 14 13 13 13 14 13 13 15 14 13 13 12 12 11 9 8 8 10 11 8 8 7 9 8 7 7 9 9 10 10 12 15 16 19 19
14 13 14 14 16 16 16 16 15 15 14 14 15 15 16 16 16 15 16 15 14 13 12 11 13 12 9 10 7 12 10 8 8 8 8 9 9 12 13 11 15 18 21
15 15 15 15 14 15 16 16 16 15 16 16 16 16 17 18 18 18 17 17 15 15 15 14 15 13 12 14 15 14 7 26 15 11 10 11 11 11 10 14 11 13 20
18 17 17 17 16 15 15 16 16 16 16 16 17 18 17 18 19 20 19 19 18 18 17 17 15 14 14 16 19 13 12 11 14 11 10 13 14 13 12 10 12 11 17
19 20 20 20 18 19 19 18 17 18 17 17 18 18 18 20 19 21 21 20 21 20 19 17 14 15 20 19 25 20 20 17 19 13 15 13 9 15 12 13 13 14 17
21 22 22 22 22 22 22 21 20 18 19 20 19 18 19 19 19 21 22 22 23 24 27 23 17 18 20 22 21 17 8 17 21 12 18 23 19 16 15 15 13 10 8
23 23 23 23 23 25 24 21 21 20 21 21 22 20 21 22 21 22 22 24 23 24 25 20 21 22 21 22 23 10 6 10 13 11 5 17 17 19 16 18 13 11 12
22 21 22 23 25 25 23 24 23 22 22 23 23 21 25 24 26 27 26 26 26 26 26 26 23 23 24 20 20 18 20 18 10 11 4 10 15 29 16 12 18 15 13
18 18 20 22 24 24 22 28 23 26 26 24 22 23 24 23 28 29 29 28 29 29 28 27 25 20 22 22 22 24 22 24 19 14 11 16 20 16 10 9 15 17 16
13 14 14 18 19 19 20 21 23 24 21 21 21 22 24 25 26 28 30 33 35 32 32 29 29 27 29 26 26 25 22 12 14 10 8 14 16 17 20 27 21 21 17
Wind_Direction
144 152 150 150 143 141 151 156 159 155 148 150 145 141 138 130 129 125 112 110 107 113 131 121 99 97 95 74 77 84 85 85 93 102 108 105 107 113 111 107 106 113 108
148 153 150 152 144 137 153 156 162 161 158 157 160 155 147 143 141 133 125 116 99 105 120 103 91 82 67 62 75 93 108 117 111 119 141 132 123 123 128 127 130 130 125
145 152 151 153 148 146 154 165 165 163 161 160 164 162 163 169 172 173 153 127 85 84 78 76 68 70 66 56 56 95 132 168 171 194 191 158 137 131 149 112 128 124 129
145 152 158 158 156 155 153 160 168 169 165 168 165 168 176 182 167 174 169 161 64 15 14 17 35 41 50 53 63 83 111 186 219 226 263 251 141 138 153 148 139 132 132
146 157 161 160 161 158 154 154 159 159 167 175 172 174 188 185 181 190 204 220 244 289 321 356 11 19 35 44 51 66 79 202 215 207 252 283 154 147 138 150 161 157 138
148 152 162 161 161 159 157 159 157 157 163 167 175 186 198 199 207 215 229 233 231 243 265 160 53 35 20 44 57 66 49 40 209 254 212 250 10 122 133 155 168 168 168
149 144 156 163 161 162 164 169 168 170 173 183 186 196 205 218 232 241 234 232 225 196 139 156 83 13 8 19 33 29 8 289 297 255 212 217 158 142 154 157 176 178 170
150 144 157 165 168 169 171 176 177 184 188 199 203 204 214 227 221 210 177 188 169 132 117 115 152 354 355 345 328 324 317 311 277 290 210 214 173 195 185 175 187 180 179
152 147 159 165 171 174 178 184 183 190 196 203 205 216 222 226 216 196 179 144 128 128 105 85 66 290 280 303 289 282 281 273 263 224 205 189 204 228 184 177 179 190 192
158 162 160 170 177 183 190 195 188 198 204 214 214 216 215 218 217 196 200 178 152 165 176 191 214 237 252 259 264 273 269 273 271 312 202 151 150 170 187 190 205 207 197
172 171 171 159 182 196 216 190 195 203 213 204 214 214 222 213 194 199 179 185 205 204 204 209 272 263 260 226 220 297 264 242 265 244 130 148 173 205 199 206 210 216 209
179 176 190 166 172 186 201 169 194 203 211 211 207 190 219 231 194 92 182 219 241 236 242 228 243 268 277 260 217 268 250 253 240 277 130 130 235 203 202 206 215 218 216
181 186 191 191 171 177 208 186 181 212 202 186 221 210 231 224 216 202 200 203 194 240 251 212 243 235 259 290 80 284 296 275 261 234 179 251 239 204 196 207 218 218 221
180 189 187 198 187 205 177 197 183 222 194 204 193 206 229 230 218 250 220 213 189 226 244 247 240 229 204 247 261 255 273 296 250 237 224 261 244 222 215 211 219 230 226
179 189 190 187 196 198 201 199 228 216 211 216 197 198 211 224 224 221 236 237 238 221 226 238 267 285 247 256 238 249 259 249 240 239 236 239 242 219 218 233 228 229 228
179 185 192 190 194 200 204 212 212 226 219 225 226 216 209 226 227 228 228 232 232 234 243 241 195 273 283 282 224 232 248 250 252 252 226 237 247 244 244 247 239 230 229
174 181 188 196 196 202 206 210 218 223 223 224 225 228 217 223 228 233 234 233 232 230 244 267 273 256 250 267 288 234 242 239 247 223 229 224 225 241 238 240 239 229 227
195 187 190 194 195 200 206 211 219 223 231 229 229 229 222 227 229 228 236 235 232 235 232 240 249 257 270 279 244 262 217 243 230 216 218 222 225 240 221 236 239 231 227
195 180 194 198 202 200 207 214 220 226 230 233 234 232 223 227 230 230 236 236 239 238 244 249 247 250 262 263 260 245 287 298 211 213 223 241 242 250 240 237 237 241 234
186 197 199 205 210 209 210 215 224 228 232 235 236 236 231 228 227 230 235 240 239 236 243 247 257 269 286 286 288 288 196 250 286 248 235 233 240 231 240 240 217 235 242
201 201 208 210 211 211 214 218 222 229 233 236 237 236 234 231 229 222 233 234 234 242 244 260 264 236 252 270 273 289 294 272 234 227 236 232 245 241 248 244 225 249 244
211 211 211 217 214 216 221 224 231 233 238 240 241 237 231 233 233 235 230 234 233 234 231 239 253 260 267 260 258 260 276 284 280 263 278 250 225 238 236 225 239 235 256
216 216 217 215 220 220 224 229 235 241 249 244 242 243 236 228 229 230 234 235 245 242 247 226 228 232 249 260 268 236 261 274 273 288 184 231 303 270 253 250 203 224 239
221 217 220 216 218 224 224 231 239 237 239 244 239 245 237 233 230 226 229 233 234 240 244 246 241 239 229 248 261 240 237 252 275 291 274 261 259 259 258 256 221 207 213
210 216 214 212 217 221 224 226 236 242 249 253 247 246 241 237 241 232 230 229 231 234 238 243 244 237 242 236 244 256 230 222 227 236 264 263 226 241 252 303 278 194 200
203 209 207 198 204 217 225 232 233 250 261 262 259 252 247 245 247 243 240 236 235 233 235 234 235 239 237 236 239 245 256 250 251 239 248 260 272 266 250 249 265 265 178
Height
800 802 805 808 811 812 815 818 822 823 824 826 827 829 831 832 834 835 837 840 840 841 841 842 843 843 844 845 845 844 844 843 843 843 843 843 844 845 847 849 850 852 852
796 802 805 808 812 813 816 819 822 824 825 827 829 831 832 833 835 837 838 840 841 842 843 844 845 846 846 846 847 847 846 845 845 844 842 841 845 847 849 851 852 852 854
795 802 806 809 813 815 818 820 823 825 827 829 832 832 834 836 837 838 840 841 842 843 844 845 846 846 847 847 847 848 847 847 845 843 834 832 839 846 850 852 853 854 855
795 802 807 810 813 816 818 821 823 825 827 830 833 834 835 836 838 839 841 843 844 844 845 845 846 847 848 848 848 847 847 846 846 843 831 821 836 842 849 852 854 855 857
796 803 808 812 815 817 820 822 824 826 828 830 832 834 835 837 838 840 842 843 844 845 845 845 846 846 847 848 848 848 847 846 845 844 841 835 821 836 847 853 855 857 859
798 803 808 813 816 819 821 823 825 827 829 831 833 834 836 837 839 841 842 843 844 845 845 845 845 846 847 847 848 848 847 846 845 845 843 842 838 838 845 852 857 858 859
799 804 811 814 817 820 822 824 826 828 830 831 833 834 836 837 839 841 841 842 843 844 844 845 845 846 846 846 847 847 847 846 847 845 845 844 844 844 849 853 856 858 859
797 805 812 815 818 821 823 825 827 829 830 832 833 834 836 837 839 840 841 842 843 843 845 845 845 846 846 846 847 847 846 845 845 844 844 845 847 850 851 854 856 858 860
796 803 811 816 819 821 823 825 828 829 831 832 833 835 836 838 839 841 842 842 843 844 844 844 845 846 846 846 846 846 845 844 842 842 842 845 845 848 852 853 856 858 860
796 800 806 814 818 821 823 825 827 829 830 832 833 834 835 837 838 840 841 842 843 843 843 844 843 844 844 843 844 844 843 842 843 838 842 842 845 847 850 854 855 857 859
797 799 803 811 817 820 820 823 826 828 829 830 831 832 834 835 835 837 839 841 842 842 843 843 842 843 841 838 839 840 841 841 840 838 837 841 844 847 849 852 854 856 857
796 798 801 803 812 819 819 820 824 825 827 829 829 831 832 831 834 836 838 838 840 841 841 841 841 840 836 827 834 839 840 839 840 838 837 840 843 847 849 851 852 854 856
796 799 801 801 806 813 814 816 821 821 823 825 829 830 830 831 832 833 834 835 837 838 839 839 838 837 837 835 836 839 839 839 839 837 837 839 842 845 847 849 851 852 854
793 797 800 802 805 808 811 815 818 818 819 821 824 829 830 830 830 831 830 832 834 837 837 838 836 835 836 837 837 838 837 837 836 837 837 839 841 842 844 846 848 849 851
791 795 798 802 806 809 811 813 815 816 818 819 821 825 827 827 828 829 831 832 833 833 834 835 835 835 835 834 834 835 834 834 835 835 836 837 839 840 842 843 845 847 849
790 794 797 802 806 809 812 814 816 816 817 820 819 821 824 826 827 827 829 830 831 831 831 832 832 833 833 832 830 832 831 831 831 832 833 834 835 837 838 840 841 843 846
788 792 796 801 805 808 811 814 816 816 816 817 818 819 821 824 825 827 827 827 827 828 830 831 832 829 828 828 827 828 829 829 828 828 830 831 831 832 833 835 836 839 841
784 790 794 797 801 805 808 811 812 814 814 814 815 816 819 821 823 825 825 824 825 825 825 826 825 825 823 823 823 826 827 830 828 825 826 827 829 828 828 830 832 834 836
784 788 792 795 798 801 806 808 810 811 812 812 812 812 814 817 820 822 822 822 823 823 822 822 821 821 820 819 818 821 821 822 826 821 822 825 826 827 827 826 828 830 832
781 785 789 793 796 799 802 805 806 807 808 808 808 808 809 812 815 818 819 819 820 820 820 820 820 819 818 816 814 817 814 812 818 818 816 819 821 823 824 824 825 827 827
776 781 785 789 792 796 798 799 801 801 802 802 803 804 805 808 810 812 814 815 817 817 817 817 818 818 819 817 814 811 814 813 810 806 810 813 816 818 820 822 823 823 821
770 774 779 784 788 791 792 794 795 795 795 796 797 798 801 804 806 808 809 810 810 811 811 813 815 816 816 813 809 806 810 808 804 802 808 812 809 809 812 815 818 820 822
763 768 773 778 782 784 787 790 791 792 792 791 792 794 795 797 799 801 803 806 807 807 806 807 809 812 813 811 808 808 807 804 800 800 805 804 803 806 803 806 812 816 820
755 760 766 771 775 779 782 784 784 784 784 784 788 789 789 791 792 793 795 797 799 801 802 802 804 804 806 807 805 803 805 807 807 803 802 797 796 803 801 803 808 810 814
746 752 757 763 768 772 775 777 779 780 779 780 781 783 783 785 787 787 788 789 791 793 794 796 797 798 800 801 802 799 798 800 802 805 803 799 800 800 798 799 800 799 805
742 746 750 756 762 767 771 774 775 776 776 776 775 776 776 778 780 781 781 781 782 782 784 785 788 790 793 794 795 795 794 797 796 798 802 803 801 800 799 799 796 806 798